TimeEST,TemperatureF,Dew PointF,Humidity,Sea Level PressureIn,VisibilityMPH,Wind Direction,Wind SpeedMPH,Gust SpeedMPH,PrecipitationIn,Events,Conditions,WindDirDegrees,DateUTC
12:54 AM,48.0,30.9,52,30.05,10.0,NW,10.4,-,N/A,,Clear,310,2012-11-09 05:54:00
1:54 AM,46.9,30.0,52,30.06,10.0,WNW,9.2,-,N/A,,Clear,300,2012-11-09 06:54:00
2:54 AM,45.0,30.0,56,30.09,10.0,WNW,5.8,-,N/A,,Clear,290,2012-11-09 07:54:00
3:54 AM,44.1,30.0,58,30.10,10.0,WNW,4.6,-,N/A,,Clear,290,2012-11-09 08:54:00
4:54 AM,43.0,30.0,60,30.12,10.0,WNW,5.8,-,N/A,,Clear,290,2012-11-09 09:54:00
5:54 AM,43.0,30.9,62,30.14,10.0,WNW,6.9,-,N/A,,Clear,300,2012-11-09 10:54:00
6:54 AM,41.0,30.0,65,30.17,10.0,WNW,3.5,-,N/A,,Clear,290,2012-11-09 11:54:00
7:54 AM,44.1,30.9,60,30.19,10.0,WNW,8.1,-,N/A,,Clear,300,2012-11-09 12:54:00
8:54 AM,46.0,32.0,58,30.20,10.0,NW,11.5,-,N/A,,Clear,310,2012-11-09 13:54:00
9:54 AM,48.0,33.1,56,30.21,10.0,NW,10.4,-,N/A,,Clear,320,2012-11-09 14:54:00
10:54 AM,50.0,33.1,52,30.22,10.0,NW,8.1,-,N/A,,Clear,310,2012-11-09 15:54:00
11:54 AM,52.0,34.0,50,30.19,10.0,NW,8.1,-,N/A,,Clear,320,2012-11-09 16:54:00
12:54 PM,54.0,35.1,49,30.18,10.0,NNW,9.2,-,N/A,,Clear,330,2012-11-09 17:54:00
1:54 PM,55.9,35.1,45,30.16,10.0,NW,8.1,-,N/A,,Clear,320,2012-11-09 18:54:00
2:54 PM,57.0,35.1,44,30.16,10.0,NW,9.2,-,N/A,,Clear,320,2012-11-09 19:54:00
3:54 PM,57.9,35.1,42,30.16,10.0,Variable,3.5,-,N/A,,Clear,0,2012-11-09 20:54:00
4:54 PM,55.9,34.0,44,30.17,10.0,WNW,4.6,-,N/A,,Clear,290,2012-11-09 21:54:00
5:54 PM,51.1,37.9,61,30.19,10.0,Calm,Calm,-,N/A,,Clear,0,2012-11-09 22:54:00
6:54 PM,48.0,39.0,71,30.21,10.0,Calm,Calm,-,N/A,,Clear,0,2012-11-09 23:54:00
7:54 PM,46.9,39.0,74,30.21,10.0,Calm,Calm,-,N/A,,Clear,0,2012-11-10 00:54:00
8:54 PM,46.0,37.9,73,30.22,10.0,Calm,Calm,-,N/A,,Clear,0,2012-11-10 01:54:00
9:54 PM,45.0,39.0,80,30.23,9.0,Calm,Calm,-,N/A,,Clear,0,2012-11-10 02:54:00
10:54 PM,45.0,39.9,82,30.23,8.0,Calm,Calm,-,N/A,,Clear,0,2012-11-10 03:54:00
11:54 PM,44.1,39.0,82,30.24,8.0,Calm,Calm,-,N/A,,Clear,0,2012-11-10 04:54:00